sat.trackr.live / text

‹ back to catalog

STARLINK-5918

NORAD 55939 · 2023-037AB

PAYLOAD ACTIVE UNKNOWN

§ Identity

Operator
Country
US
Launch date
2023-03-17
Launch site
AFWTR
Launch vehicle
Mass (kg)
RCS (m²)

Purposes: comms

External: N2YO · Heavens-Above · Gunter

§ Orbital elements

Epoch: 2026-05-25T03:32:46.070880Z

Period
96.11 min
Inclination
69.9998°
Eccentricity
0.0003457
Mean motion
14.98313057 rev/d
Perigee alt
569.7 km
Apogee alt
574.5 km
Semi-major
6,950.2 km
B*
6.4746e-5
RAAN
91.6505°
Arg perigee
262.1354°
Mean anomaly
97.9412°
Rev number
17,543

§ Raw data

STARLINK-59181 55939U 23037AB  26145.14775545  .00000679  00000+0  64746-4 0  99942 55939  69.9998  91.6505 0003457 262.1354  97.9412 14.98313057175434

JSON: /api/v1/satellites/55939 · /tle

For live sub-satellite position, see the globe view (requires WebGL).

§ Visibility from observer

Set your observer location to see the next 7 days of passes ≥ 10°. The values pass through the URL so the page stays shareable.

No JS? Fill the form by hand. The geolocation button needs JavaScript.